This is the latest recevied weather packets stored in our database for station/object DL9GRB-13. If no packets are shown the sender has not sent any weather packets the latest 10 day(s).
| Time | Temp. | Humidity | Pressure | Rain* | Wind** | Luminosity | Snow |
|---|---|---|---|---|---|---|---|
| 1777290065 | 11.67° C | 66% | 1023.7 hPa | 0 mm | - | 657 W/m² | - |
| 1777289885 | 11.67° C | 65% | 1023.7 hPa | 0 mm | - | 709 W/m² | - |
| 1777289705 | 11.67° C | 63% | 1023.7 hPa | 0 mm | - | 694 W/m² | - |
| 1777289525 | 11.67° C | 66% | 1023.8 hPa | 0 mm | - | 704 W/m² | - |
| 1777289345 | 11.67° C | 65% | 1023.8 hPa | 0 mm | - | 718 W/m² | - |
| 1777289165 | 11.67° C | 66% | 1023.6 hPa | 0 mm | - | 751 W/m² | - |
| 1777288985 | 11.67° C | 65% | 1023.9 hPa | 0 mm | - | 739 W/m² | - |
| 1777288805 | 11.67° C | 67% | 1023.6 hPa | 0 mm | - | 752 W/m² | - |
| 1777288625 | 11.67° C | 66% | 1023.8 hPa | 0 mm | - | 779 W/m² | - |
| 1777288445 | 11.67° C | 66% | 1023.7 hPa | 0 mm | - | 795 W/m² | - |
| 1777288265 | 11.67° C | 65% | 1023.7 hPa | 0 mm | - | 835 W/m² | - |
| 1777288085 | 11.67° C | 64% | 1023.7 hPa | 0 mm | - | 790 W/m² | - |
| 1777287905 | 11.67° C | 61% | 1023.7 hPa | 0 mm | - | 817 W/m² | - |
| 1777287725 | 11.67° C | 64% | 1023.8 hPa | 0 mm | - | 786 W/m² | - |
| 1777287545 | 11.67° C | 65% | 1023.8 hPa | 0 mm | - | 789 W/m² | - |
| 1777287365 | 11.67° C | 64% | 1023.8 hPa | 0 mm | - | 777 W/m² | - |
| 1777287185 | 11.67° C | 62% | 1023.6 hPa | 0 mm | - | 653 W/m² | - |
| 1777287005 | 11.11° C | 61% | 1023.8 hPa | 0 mm | - | 774 W/m² | - |
| 1777286825 | 11.67° C | 61% | 1023.8 hPa | 0 mm | - | 773 W/m² | - |
| 1777286645 | 11.67° C | 60% | 1023.7 hPa | 0 mm | - | 769 W/m² | - |
| 1777286465 | 11.67° C | 59% | 1023.8 hPa | 0 mm | - | 757 W/m² | - |
| 1777286285 | 11.67° C | 59% | 1023.8 hPa | 0 mm | - | 404 W/m² | - |
| 1777286105 | 11.67° C | 57% | 1023.7 hPa | 0 mm | - | 720 W/m² | - |
| 1777285925 | 11.67° C | 55% | 1023.8 hPa | 0 mm | - | 741 W/m² | - |
| 1777285745 | 11.67° C | 52% | 1023.8 hPa | 0 mm | - | 736 W/m² | - |
* Rain latest hour (hover to see other rain measurements)
** Current wind speed in m/s (hover to see current wind gust speed)